Hourly Data Report for October 09, 2013

All times are specified in Local Standard Time (LST). Add 1 hour to adjust for Daylight Saving Time where and when it is observed.

POND INLET A
NUNAVUT

72°41'22.000" N
77°58'08.000" W
61.60 m
2403206
71095
YIO

Download Data

Hourly Data (October 2013)
Hourly Data Report for October 9, 2013
Temp Definition
°C
Dew Point Temp Definition
°C
Rel Hum Definition
%
Wind Dir Definition
10's deg

Wind Spd Definition
km/h
Visibility Definition
km
Stn Press Definition
kPa
Hmdx Definition


Wind Chill Definition


Weather Definition


TIME
00:00 Legend Double Dagger -6.0 -10.8 69 5 8 16.1 100.77   -10 LegendNANA
01:00 Legend Double Dagger -5.4 -10.8 66 6 9 16.1 100.72   -9 LegendNANA
02:00 Legend Double Dagger -6.4 -11.8 66 7 8 16.1 100.70   -10 LegendNANA
03:00 Legend Double Dagger -6.1 -12.1 63 9 11 16.1 100.69   -11 LegendNANA
04:00 Legend Double Dagger -5.5 -12.7 57 8 13 16.1 100.70   -11 LegendNANA
05:00 Legend Double Dagger -8.4 -13.7 66 14 15 16.1 100.69   -15 LegendNANA
06:00 Legend Double Dagger -9.4 -14.0 70 14 21 16.1 100.68   -17 LegendNANA
07:00 Legend Double Dagger -10.4 -14.5 72 15 22 16.1 100.66   -19 LegendNANA
08:00 Legend Double Dagger -9.7 -13.3 75 14 22 16.1 100.62   -18 LegendNANA
09:00 Legend Double Dagger -8.3 -12.5 72 14 17 16.1 100.58   -15 LegendNANA
10:00 Legend Double Dagger -6.8 -11.9 67 16 18 16.1 100.55   -13 LegendNANA
11:00 Legend Double Dagger -6.0 -12.1 63 16 22 16.1 100.50   -13 LegendNANA
12:00 Legend Double Dagger -5.9 -11.5 65 16 26 16.1 100.48   -14 LegendNANA
13:00 Legend Double Dagger -5.8 -10.9 68 17 24 16.1 100.46   -13 LegendNANA
14:00 Legend Double Dagger -6.6 -11.8 67 17 24 16.1 100.47   -14 LegendNANA
15:00 Legend Double Dagger -6.3 -11.1 69 18 26 16.1 100.46   -14 LegendNANA
16:00 Legend Double Dagger -8.1 -11.3 78 17 21 16.1 100.47   -16 LegendNANA
17:00 Legend Double Dagger -9.4 -11.8 83 17 24 16.1 100.48   -18 LegendNANA
18:00 Legend Double Dagger -9.4 -12.0 81 17 26 16.1 100.47   -18 LegendNANA
19:00 Legend Double Dagger -9.8 -12.5 81 16 28 16.1 100.48   -19 LegendNANA
20:00 Legend Double Dagger -9.9 -12.6 81 16 24 16.1 100.52   -18 LegendNANA
21:00 Legend Double Dagger -10.2 -13.0 80 15 24 16.1 100.53   -19 LegendNANA
22:00 Legend Double Dagger -10.5 -13.3 80 16 26 16.1 100.52   -20 LegendNANA
23:00 Legend Double Dagger -9.7 -13.2 76 16 24 16.1 100.53   -18 LegendNANA

Notes on Data Quality.

Legend

  • E = Estimated
  • M = Missing
  • NA = Not Available
  • ‡ = Partner data that is not subject to review by the National Climate Archives
Date modified: